Regional Weather Roundup
Issued by NWS

Home | Current Version | Previous Version | Graphics & Text | Print | Product List | Glossary On
Versions: 1 2 3 4 5 6 7 8 9 10 11 12 13 14 15 16 17 18 19 20 21 22 23 24 25 26 27 28 29 30 31 32 33 34 35 36 37 38 39 40 41 42 43 44 45 46 47 48 49 50
843
ASUS43 KTOP 221859
RWRKS

WEATHER ROUNDUP FOR KANSAS
NATIONAL WEATHER SERVICE GOODLAND KS
200 PM CDT THU JUN 22 2017

NOTE:  "FAIR" INDICATES FEW OR NO CLOUDS BELOW 12,000 FEET WITH NO
SIGNIFICANT WEATHER AND/OR OBSTRUCTIONS TO VISIBILITY.

KSZ001>006-013>018-027>032-041>047-222000-
NORTHWEST KANSAS

CITY           SKY/WX    TMP DP  RH WIND       PRES   REMARKS
GOODLAND       SUNNY     90  57  32 N23G32    29.78R
HILL CITY      SUNNY    100  63  29 S6        29.63F HX 102
RUSSELL        SUNNY     95  60  31 S15G28    29.63F HX  95
$$

KSZ061>065-074>080-084>089-222000-
SOUTHWEST KANSAS

CITY           SKY/WX    TMP DP  RH WIND       PRES   REMARKS
DODGE CITY     SUNNY     91  64  40 SW16      29.71F
ELKHART          N/A     94  61  33 E9          N/A
$$

KSZ066>073-081>083-090>101-222000-
SOUTHEAST KANSAS

CITY           SKY/WX    TMP DP  RH WIND       PRES   REMARKS
CHANUTE        CLOUDY    85  71  63 S10       29.73F
COFFEYVILLE    CLOUDY    85  73  67 S8        29.72F
HUTCHINSON     SUNNY     93  63  36 S18G25    29.67F
MEDICINE LODGE   N/A     92  59  33 S13G21    29.67F
PARSONS        CLOUDY    84  71  65 VRB6      29.74F
WICHITA INTL   SUNNY     89  67  47 S21       29.68F
WINFIELD       SUNNY     86  69  56 S15       29.71F
$$

KSZ007>012-019>026-033>040-048>060-102>105-222000-
NORTHEAST KANSAS

CITY           SKY/WX    TMP DP  RH WIND       PRES   REMARKS
EMPORIA        SUNNY     85  70  60 S16       29.70F
LAWRENCE       MOSUNNY   88  72  58 S13       29.69F
MANHATTAN      SUNNY     93  68  43 SW16G23   29.65F HX  97
OLATHE IND     MOSUNNY   84  70  62 S17       29.72F
OLATHE EXE     PTSUNNY   82  72  71 S13       29.72F
SALINA         SUNNY     97  62  31 S17       29.64F HX  98
TOPEKA BILLARD SUNNY     88  70  55 S12G20    29.69F
TOPEKA FORBES  SUNNY     89  70  53 S15       29.69F
$$




USA.gov is the U.S. government's official web portal to all federal, state and local government web resources and services.